timestamp,gas_concentrations,,corrected_fluxes_and_quality_flags,,,,,,,,,,storage_terms,,,turbulence,,,footprint,,
ISOdate,CO2_1_1_1,H2O_1_1_1,Tau_1_1_1,QcTau_1_1_1,H_1_1_1,QcH_1_1_1,LE_1_1_1, QcLE_1_1_1,Fc_1_1_1, QcFc_1_1_1,E_1_1_1, QcE_1_1_1,Sa_1_1_1,Sw_1_1_1,Sc_1_1_1,ustar_1_1_1,MO_length_1_1_1,ZL_1_1_1,Fetchmax_1_1_1,Fetch70_1_1_1,Fetch90_1_1_1
yyyymmddHHMM,[µmol+1mol_a-1],[mmol+1mol_a-1],[kg+1m-1s-2],[#],[W+1m-2],[#],[W+1m-2],[#],[µmol+1s-1m-2],[#],[mmol+1s-1m-2],[#],[W+1m-2],[W+1m-2],[µmol+1s-1m-2],[m+1s-1],[m],[#],[m],[m],[m]
201301080030,-9999.,4.0046237435238448,0.38753720911282791,0,-40.722757280165652,0,-0.93752128812556279,1,-9999.,-9999.,-2.07313605669916315E-002,1,-9999.,-9999.,-9999.,0.56070024372407257,364.57948484651007,5.92463396811636761E-002,110.70405569703138,202.40232106183828,303.23555948250157
201301080100,-9999.,3.9837200001839221,0.42827934245128318,0,-54.894158113212654,0,-1.2962186303325587,1,-9999.,-9999.,-2.86570101379430495E-002,1,-5.5430046061479121,-0.78451432172700464,-9999.,0.58910155332761360,313.73687191264639,6.88475022662114050E-002,106.79237681170166,195.25052449346242,292.52086499511023
201301080130,-9999.,3.9535056266572428,0.33437487563898544,0,-44.033546347963288,0,-1.0507665130259864,1,-9999.,-9999.,-2.32232281585090100E-002,1,-8.0447171940953783,-1.1360283315429858,-9999.,0.52012734483709877,269.24801859260850,8.02234315888591398E-002,101.90790416704756,186.32015067638503,279.14153768995550
201301080200,-9999.,3.9326397508991353,0.38216734745317715,0,-49.560734783182120,0,-1.1697327935814130,0,-9999.,-9999.,-2.58461696281703200E-002,0,-6.3170473600108892,-0.78562166920905419,-9999.,0.55573881042408979,291.83061565465374,7.40155379227277199E-002,103.95430093257325,190.06161662853935,284.74693547064408
201301080230,-9999.,3.9136923973565807,0.38013294844709972,0,-60.775196481478382,0,-1.4178434844344387,0,-9999.,-9999.,-3.13224203227202916E-002,0,-4.8842139146876988,-0.71426686669968453,-9999.,0.55396692317603224,235.75977866883721,9.16186811930320838E-002,102.35614423331619,187.13967647636090,280.36933667547260
201301080300,-9999.,3.8943915794397537,0.41605857019854586,0,-71.855955039000918,0,-1.6681512820089166,0,-9999.,-9999.,-3.68463126434733709E-002,0,-4.0545658541711296,-0.72829459098701055,-9999.,0.57931693552082308,228.07927326187297,9.47039145253659453E-002,112.54461345114761,205.76744765215054,308.27713232114019
201301080330,-9999.,3.8732160185522959,0.28067519809614183,0,-50.278175710941149,0,-1.1577651629668615,0,-9999.,-9999.,-2.55687946825519444E-002,0,-4.0818304925159392,-0.79975165630175382,-9999.,0.47564096249680055,180.42219319398671,0.11971919650026684,105.52972567285595,192.94199550972621,289.06226790841498
201301080400,-9999.,3.8356040876033837,0.18004912219226923,0,-38.411961716343342,0,-0.73986083557079474,0,-9999.,-9999.,-1.63348098326436715E-002,0,-7.4689258496869853,-1.4228190541199983,-9999.,0.38069800446166502,121.10445728848345,0.17835842283283224,100.12064753644434,183.05247553937602,274.24596488634489
201301080430,-9999.,3.8085362274798764,0.21089508003529445,0,-53.641748981595022,0,-1.0284888094107056,1,-9999.,-9999.,-2.27023780372261931E-002,1,-5.4869119344348967,-1.0250755751594587,-9999.,0.41183501325976485,109.79001667981237,0.19673919954847496,105.13995811291812,192.22937610017243,287.99463417664515
201301080500,-9999.,3.7982707769438284,0.13175816730472820,0,-38.640083844402199,0,-0.79267783902338995,1,-9999.,-9999.,-1.74963399542320576E-002,1,-1.2665394966038233,-0.38887950398735904,-9999.,0.32547757885963663,75.238671563331323,0.28708640850760420,93.105461301493676,170.22647772299115,255.03028295459205
201301080530,-9999.,3.8029065005236906,0.15800539656262250,0,-53.936541088732064,0,-1.1330783523894048,2,-9999.,-9999.,-2.50102210523683900E-002,2,0.42218577390619327,0.17561159490900663,-9999.,0.35642305580020178,70.787213334159972,0.30513985482144179,99.490654959464663,181.90064818283017,272.52031761581429
201301080600,-9999.,3.7379749904036417,0.14025517632190618,0,-39.802753466071465,0,-0.48327786587531307,0,-9999.,-9999.,-1.06641128740431659E-002,0,-7.7309674867342890,-2.4636550453832489,-9999.,0.33558647476714121,80.069283949897510,0.26976636900507278,98.991404921298027,180.98785988542863,271.15279441450144
201301080630,-9999.,3.7100090130257968,0.11765991554416166,0,-44.819643612331831,0,-0.91233514188794296,1,-9999.,-9999.,-2.01302270176773983E-002,1,-2.0010395804028578,-1.0618361296779528,-9999.,0.30727143992800598,54.595743226253418,0.39563524047078497,92.522751759715561,169.16109883494437,253.43415124284647
201301080700,-9999.,3.7064000371290007,9.11890332313468888E-002,0,-38.080039677997732,0,-0.86231814354635672,1,-9999.,-9999.,-1.90274692102677459E-002,1,1.1469273752660036,-0.13702144006396863,-9999.,0.27050842525216290,43.848778421704814,0.49260209240648228,94.522034216112871,172.81642480367381,258.91049563160448
201301080730,-9999.,3.6838029952811775,0.10916775112881096,0,-39.504904778851405,0,-0.87208002551103447,2,-9999.,-9999.,-1.92419934609636793E-002,2,-1.1797372142977396,-0.85817956707628584,-9999.,0.29594001235709011,55.346174996966006,0.39027087239875352,104.91726022176061,191.82221332928702,287.38463015108778
201301080800,-9999.,3.5490303153754281,6.75135190994722717E-002,0,-26.333307017063827,0,-0.57733090836932210,2,-9999.,-9999.,-1.27321402784885216E-002,2,-12.982443204259539,-5.1327873298717650,-9999.,0.23245395674955283,40.246081938290388,0.53669820662591305,117.17260235619023,214.22888739192496,320.95391092751822
201301080830,-9999.,3.4322592074083325,5.08864577179449218E-002,0,-12.040730818389186,0,-0.34213537036373343,1,-9999.,-9999.,-7.54307354856655152E-003,1,-7.5634100363810601,-4.4556977360066359,-9999.,0.20164234576340967,57.470274729831374,0.37584647196384435,116.43856989607562,212.88684194718962,318.94328229860577
201301080900,-9999.,3.5021962565539679,0.11822446739178574,0,0.99048994834787341,2,0.19722139638834743,2,-9999.,-9999.,4.35011758079473232E-003,2,11.760952175917566,2.6635125351688806,-9999.,0.30758007951291566,-2480.2062362755660,-8.70895318464964471E-003,115.00466655976244,210.26520932839585,315.01559891164186
201301080930,-9999.,3.5998478297315328,0.16950664186412640,1,4.8961358427546902,1,-7.92393356137187643E-002,2,-9999.,-9999.,-1.74863189438165755E-003,2,12.569744673953725,3.7103000906849535,-9999.,0.36864592110714034,-863.91126942383494,-2.50025676993490403E-002,120.47238978575605,220.26195122639393,329.99253991972188
201301081000,-9999.,3.7354400268276398,0.29464362356721557,0,1.9624598044604376,2,0.18314606033978462,0,-9999.,-9999.,4.04509633577094813E-003,0,22.216712722584962,5.1303203835652917,-9999.,0.48685416314502650,-4965.1132784908250,-4.35035391711454528E-003,119.40859162136374,218.31698890086190,327.07863193753570
201301081030,-9999.,3.9339072582545422,0.20822226147088826,0,38.471823753809133,1,1.1517406118383553,0,-9999.,-9999.,2.54706587042380431E-002,0,32.740674739795978,7.4604928540398996,-9999.,0.41036347709918747,-151.65334438473448,-0.14243009336610629,127.19066674961850,232.54510420087436,348.39494135902032
201301081100,-9999.,4.1258653308506688,0.45275183448996287,0,32.036373398750882,0,1.1594203715670859,0,-9999.,-9999.,2.56956346976515738E-002,0,54.538423656735389,7.1369127595930060,-9999.,0.60781568493215188,-591.62777458670541,-3.65094421320722382E-002,130.91523812877739,239.35480857309156,358.59711939920612
201301081130,-9999.,4.1001968042351047,0.51720715079068347,0,77.299699789849470,1,2.1966872631429677,0,-9999.,-9999.,4.87187675746278484E-002,0,18.016182503448842,-0.95053144742760409,-9999.,0.65070830974792504,-300.74494600957814,-7.18216558136677147E-002,131.18919879514095,239.85569604647725,359.34754010798582
201301081200,-9999.,4.1043053710028357,0.42603237119236348,0,26.283681461000789,0,0.77898617312847418,0,-9999.,-9999.,1.72867057257232032E-002,0,14.752527782473489,0.15162598889888493,-9999.,0.59141133193960616,-663.78941661770386,-3.25404404759289598E-002,127.87310657165673,233.79282184857814,350.26424975920440
201301081230,-9999.,4.0620551229094266,0.39185301058103783,0,21.288458140949832,0,0.68461381346700234,0,-9999.,-9999.,1.51993855867891617E-002,0,11.442487557194692,-1.5550611633006892,-9999.,0.56781918454837288,-725.08432680940768,-2.97896385307990230E-002,117.39635670524906,214.63798170479396,321.56680875494004
201301081300,-9999.,4.0701562929697923,0.61768543366520245,0,115.78343276258812,1,3.2686008338257593,1,-9999.,-9999.,7.26170449577761695E-002,1,17.070910956460359,0.29703993220771752,-9999.,0.71401974371507493,-264.99589367393855,-8.15106970169790501E-002,128.85364805036644,235.58556439932440,352.95010478068679
201301081330,-9999.,3.9777717744381911,0.47784565881292285,0,23.554193714046008,0,1.0256540854864387,1,-9999.,-9999.,2.28025738134695864E-002,1,17.575318193023289,-3.3740359709583871,-9999.,0.62902502009987071,-890.26853650793726,-2.42623423318155465E-002,126.61306180766285,231.48905814933167,346.81279193702335
201301081400,-9999.,3.9675722910529196,0.61962251333014740,0,14.080255013177254,0,0.60734432003270944,0,-9999.,-9999.,1.35065876525837444E-002,0,7.3143864839787005,-0.37185085164871329,-9999.,0.71680817471825098,-2203.3468622085584,-9.80326809658507888E-003,119.44512746588191,218.38378807715105,327.17870927602053
201301081430,-9999.,3.9812214154319685,0.69034343092858907,0,50.950174243470698,0,1.4401199663050510,0,-9999.,-9999.,3.20468315338292772E-002,0,15.742836431031030,0.49593045937068009,-9999.,0.75765676175207908,-718.88250959860602,-3.00466344800356042E-002,116.58664316598515,213.15756711013148,319.34887792527638
201301081500,-9999.,3.8709781151509812,0.54136621203911772,0,19.726910056397095,1,0.59154675612356644,1,-9999.,-9999.,1.31737953554008393E-002,1,19.066108316349137,-3.9881633094185558,-9999.,0.67213473552439840,-1295.6626925814617,-1.66710055971160502E-002,113.09881895112625,206.78071206089001,309.79518704638190
201301081530,-9999.,3.6531531244340663,0.72554440292538669,0,-8.5194324164114494,1,6.74032332608514306E-002,0,-9999.,-9999.,1.50171880142373638E-003,0,10.545875249312099,-7.8591414177431700,-9999.,0.77894804455009681,4667.6530832440048,4.62759327113232422E-003,120.10982137605356,219.59906053819441,328.99940887430017
201301081600,-9999.,3.6507767222380019,0.89520015636726191,0,-9.3660316619309896,2,-0.13774075943292530,2,-9999.,-9999.,-3.06818585376566208E-003,2,-5.0287156099667358,-8.57870266689967770E-002,-9999.,0.86509457020152025,5814.0781920408454,3.71512031426911651E-003,123.17565530738686,225.20438276225312,337.39720298938261
201301081630,-9999.,3.9213051562211358,1.3357388621887647,0,-45.397478155180394,0,-0.85341550037662839,0,-9999.,-9999.,-1.89919962798888592E-002,0,-23.279259554875782,9.8052979064848920,-9999.,1.0551591886822806,2175.8212800838182,9.92728593920540886E-003,115.92772843781808,211.95286083696809,317.54400840185241
201301081700,-9999.,4.1485789081631612,1.1928157671417692,0,-48.190710959678938,0,-1.0941491058688526,2,-9999.,-9999.,-2.43283581223340366E-002,2,-21.350669514078344,8.2680426229699489,-9999.,0.99574172147579454,1722.0557020623778,1.25431482699028211E-002,122.49258781891587,223.95551754012629,335.52617531359743
201301081730,-9999.,4.2972214283714347,0.76930453077615679,0,-42.412324136977148,0,-0.97270658428385448,0,-9999.,-9999.,-2.16114932687496222E-002,0,-19.110843881684907,5.4268964967485420,-9999.,0.79856550578786478,1009.1932963152991,2.14032337302125543E-002,122.27395246509059,223.55578238316403,334.92729920718534
201301081800,-9999.,4.3292627976563685,0.97063991298570762,0,-66.038580793216070,0,-1.5293369851203693,0,-9999.,-9999.,-3.39553334382169114E-002,0,-17.136945155437822,1.1730169423654242,-9999.,0.89608621510962372,915.37246441810294,2.35969518852973126E-002,122.45608804358130,223.88878430980844,335.42619677419458
201301081830,-9999.,4.4436379087603584,0.95115441509205068,0,-52.935730430015582,0,-1.3210305669144775,2,-9999.,-9999.,-2.93147849933038072E-002,2,-13.306682418402399,4.1962665374260038,-9999.,0.88634329906311438,1104.7808647435743,1.95513885959759798E-002,119.80304394045366,219.03817354427298,328.15909795041381
201301081900,-9999.,4.5363617252367696,1.3053190725539712,0,-48.614581114302474,0,-1.1935219083130071,0,-9999.,-9999.,-2.64791704332628525E-002,0,-5.7575316892932618,3.4035871135062790,-9999.,1.0382103063837913,1932.4994415902424,1.11772347950721725E-002,120.49016842471740,220.29445624862134,330.04123836620909
201301081930,-9999.,4.5760613142990971,1.3837296970465924,0,-46.455356952335762,0,-1.1447468329835995,0,-9999.,-9999.,-2.53901387341212044E-002,0,-6.8299105088404808,1.4586397206707196,-9999.,1.0685795094926764,2204.4553324514713,9.79833870164184897E-003,119.98072584658877,219.36303273742539,328.64579621885167
201301082000,-9999.,4.5915053110551707,1.0757104464818632,0,-48.265459449368365,0,-1.1985308990764019,0,-9999.,-9999.,-2.65765161451244278E-002,0,-6.1678797879029004,0.56783626401161269,-9999.,0.94196090812556410,1452.8526407728630,1.48673027076645665E-002,113.26784940491248,207.08975363990945,310.25818764650194
201301082030,-9999.,4.6206397629398657,1.1818364708311395,0,-40.314729747617029,0,-0.96580036066493158,0,-9999.,-9999.,-2.14163319174465079E-002,0,0.51456346852560486,1.0709922928917515,-9999.,0.98742424388969652,2003.4581479770750,1.07813582339166304E-002,115.03792893119881,210.32602355187078,315.10670970020976
201301082100,-9999.,4.7182980421490264,1.3905471197897514,0,-13.023118373703577,1,-0.13965231448621851,1,-9999.,-9999.,-3.09779824472477833E-003,1,8.4880388124057085,3.5826955982130619,-9999.,1.0719923164098968,7933.9057617289318,2.72249263461039632E-003,110.69170794185781,202.37974542726647,303.20173706809373
201301082130,-9999.,4.8673903994224341,1.6789737383958965,0,-28.606509903668819,0,-0.51603676272581922,1,-9999.,-9999.,-1.14508904588866093E-002,1,8.8345976220250702,5.4570214087218583,-9999.,1.1791159206246955,4804.6760989970398,4.49562042371782957E-003,113.06757544721469,206.72358897113520,309.70960624873936
201301082200,-9999.,4.9454497394803409,1.4897252836074277,0,-18.775004545113973,0,-0.35799405861487893,1,-9999.,-9999.,-7.94410796949136626E-003,1,0.61506925589675610,2.8560740257105217,-9999.,1.1108785035198658,6120.8367786581139,3.52892925936434173E-003,111.24924141170268,203.39909442632296,304.72890761838789
201301082230,-9999.,4.9921543739664322,1.5594913876592553,0,-12.354738658991842,0,-0.22486056336047541,0,-9999.,-9999.,-4.98948030532440998E-003,0,-1.5695365361983407,1.7092983607754579,-9999.,1.1364904594612446,9959.6466218669248,2.16875164552285133E-003,110.90135835655492,202.76305324990309,303.77600203423373
201301082300,-9999.,5.0495546302803547,1.0427706509577179,0,-10.362056184786335,0,-0.31255593044712010,2,-9999.,-9999.,-6.93508723251330412E-003,2,-1.0255527543934997,2.1012709089669910,-9999.,0.92923847562157780,6491.3691794764109,3.32749523294594701E-003,99.362035915742922,181.66549154996679,272.16801012863596
201301082330,-9999.,5.1280209526623128,1.1984896242042093,0,-10.341846965977846,0,-0.21731429860430357,1,-9999.,-9999.,-4.82209094203871723E-003,1,1.3171037509452468,2.8715183580759462,-9999.,0.99635678460837396,8017.3869374284395,2.69414463447714778E-003,105.74310731981137,193.33212521494650,289.64675329777509
201301090000,-9999.,5.1917639686364163,0.89412097305817506,0,-10.076160733024537,0,-0.24161844841329064,0,-9999.,-9999.,-5.36187514597588968E-003,0,2.2709048039781985,2.3319501236795634,-9999.,0.86070078155849850,5305.0446002797071,4.07159630644031694E-003,100.11011531783983,183.03321928468810,274.21711550787342
